Location: Belfast
(54.5830°N, 5.9330°W)
Time: 05:36:54
(UTC+01:00)

ISS - Pass Details

Date: 17 March 2018
Orbit: 403 x 408 km, 51.6° (Epoch: 21 September)

Event Time Altitude Azimuth Distance (km) Brightness Sun altitude
Exits shadow 04:55:55 20° 200° (SSW) 1,036 -2.1 -14.8°
Drops below altitude 10° 04:58:04 10° 161° (SSE) 1,484 -1.0 -14.5°
Sets 05:00:29 0° 144° (SE) 2,338 0.3 -14.2°
